User: anonymous   Login
Location: Unspecified
(0.0000°N, 0.0000°E)
Time: 03:49:48
(UTC+00:00)
Language:

HAIYANG 2A - Orbit

View from above orbital plane
View from above orbital plane
View from above satellite
View from above satellite

Ground track
Ground track

The orbit data is extracted from the following two-line orbital elements,

1 37781U 11043A   18292.70898190 -.00000032  00000-0  12215-4 0  9990
2 37781  99.3240 300.7958 0001468 112.9334 247.1960 13.78718143361438
Epoch (UTC): 19 October 2018 17:00:56
Eccentricity: 0.0001468
inclination: 99.3240°
perigee height: 967 km
apogee height: 969 km
right ascension of ascending node: 300.7958°
argument of perigee: 112.9334°
revolutions per day: 13.78718143
mean anomaly at epoch: 247.1960°
orbit number at epoch: 36143

The dashed part of the orbit path shows where the satellite is in the earth's shadow,  

DLR